Location: Central Falls
(41.8900°N, 71.3929°W)
Time: 14:00:17
(UTC+00:00)

Vanguard 1 Rocket - Pass Details

Date: 03 December 2023
Orbit: 654 x 4218 km, 34.3° (Epoch: 24 February)

Event Time Altitude Azimuth Distance (km) Brightness Sun altitude
Rises 11:41:03 0° 252° (WSW) 7,769 11.7 -3.2°
Reaches altitude 10° 11:47:06 10° 250° (WSW) 6,281 11.3 -2.2°
Maximum altitude 12:04:03 59° 178° (S) 2,273 9.7 0.5°
Drops below altitude 10° 12:12:40 10° 101° (E) 3,366 11.8 1.9°
Sets 12:14:54 0° 97° (E) 4,051 12.1 2.2°
